• In Netherlands
  • List of Countries
  • For 7 days
  • Water Temperature
  • Satellite Maps
  • Weather Map
  • Weather Widgets
  • user-avatar
    Login

    Hourly Weather Armawir

    Today, 28 May, Sunday

    Time Temperature Precipitation Wind Pressure Humidity
    00:00 +15°C° 0 mm 1 mps 684 mmHg 66%
    01:00 +15°C° 0 mm 1 mps 684 mmHg 66%
    02:00 +14°C° 0 mm 1 mps 684 mmHg 67%
    03:00 +14°C° 0 mm 1 mps 684 mmHg 68%
    04:00 +15°C° 0 mm 1 mps 685 mmHg 65%
    05:00 +16°C° 0 mm 1 mps 685 mmHg 63%
    06:00 +18°C° 0 mm 1 mps 685 mmHg 61%
    07:00 +19°C° 0 mm 2 mps 686 mmHg 52%
    08:00 +21°C° 0 mm 2 mps 686 mmHg 43%
    09:00 +25°C° 0 mm 3 mps 686 mmHg 35%
    10:00 +26°C° 0 mm 3 mps 686 mmHg 32%
    11:00 +27°C° 0 mm 3 mps 686 mmHg 29%
    12:00 +28°C° 0 mm 4 mps 686 mmHg 27%
    13:00 +28°C° 0 mm 4 mps 686 mmHg 27%
    14:00 +28°C° 0 mm 5 mps 686 mmHg 27%
    15:00 +28°C° 0 mm 6 mps 686 mmHg 27%
    16:00 +27°C° 0.1 mm 5 mps 686 mmHg 31%
    17:00 +26°C° 0.1 mm 5 mps 686 mmHg 35%
    18:00 +25°C° 0.1 mm 4 mps 686 mmHg 38%
    19:00 +22°C° 0.1 mm 4 mps 686 mmHg 46%
    20:00 +19°C° 0.1 mm 3 mps 686 mmHg 53%
    21:00 +16°C° 0.1 mm 2 mps 687 mmHg 60%
    22:00 +16°C° 0 mm 1 mps 687 mmHg 61%
    23:00 +15°C° 0 mm 1 mps 687 mmHg 63%

    Tomorrow, 29 May, Monday

    Time Temperature Precipitation Wind Pressure Humidity
    00:00 +15°C° 0 mm 1 mps 687 mmHg 65%
    01:00 +14°C° 0 mm 1 mps 687 mmHg 65%
    02:00 +14°C° 0 mm 1 mps 687 mmHg 65%
    03:00 +14°C° 0 mm 1 mps 687 mmHg 65%
    04:00 +15°C° 0 mm 1 mps 688 mmHg 63%
    05:00 +16°C° 0 mm 1 mps 688 mmHg 60%
    06:00 +18°C° 0 mm 1 mps 688 mmHg 58%
    07:00 +20°C° 0 mm 1 mps 689 mmHg 51%
    08:00 +23°C° 0 mm 2 mps 689 mmHg 44%
    09:00 +25°C° 0 mm 2 mps 689 mmHg 37%
    10:00 +26°C° 0.1 mm 2 mps 689 mmHg 35%
    11:00 +27°C° 0.1 mm 2 mps 689 mmHg 33%
    12:00 +28°C° 0.1 mm 2 mps 689 mmHg 30%
    13:00 +29°C° 0.2 mm 3 mps 689 mmHg 30%
    14:00 +29°C° 0.2 mm 3 mps 689 mmHg 29%
    15:00 +29°C° 0.2 mm 3 mps 689 mmHg 29%
    16:00 +28°C° 0.2 mm 2 mps 688 mmHg 33%
    17:00 +28°C° 0.2 mm 2 mps 688 mmHg 36%
    18:00 +27°C° 0.2 mm 1 mps 688 mmHg 40%
    19:00 +24°C° 0.2 mm 2 mps 688 mmHg 45%
    20:00 +21°C° 0.2 mm 2 mps 688 mmHg 51%
    21:00 +18°C° 0.2 mm 2 mps 688 mmHg 56%
    22:00 +18°C° 0.1 mm 2 mps 688 mmHg 59%
    23:00 +17°C° 0.1 mm 2 mps 688 mmHg 61%

    Day after tomorrow, 30 May, Tuesday

    Time Temperature Precipitation Wind Pressure Humidity
    00:00 +18°C° 0.1 mm 1 mps 688 mmHg 64%
    01:00 +16°C° 0 mm 1 mps 688 mmHg 65%
    02:00 +16°C° 0 mm 1 mps 688 mmHg 67%
    03:00 +15°C° 0 mm 1 mps 688 mmHg 68%
    04:00 +16°C° 0 mm 1 mps 688 mmHg 66%
    05:00 +18°C° 0 mm 1 mps 689 mmHg 63%
    06:00 +19°C° 0 mm 1 mps 689 mmHg 61%
    07:00 +21°C° 0 mm 2 mps 689 mmHg 51%
    08:00 +24°C° 0 mm 2 mps 689 mmHg 41%
    09:00 +27°C° 0 mm 3 mps 690 mmHg 31%
    10:00 +28°C° 0 mm 3 mps 689 mmHg 28%
    11:00 +29°C° 0 mm 3 mps 689 mmHg 26%
    12:00 +32°C° 0 mm 4 mps 689 mmHg 23%
    13:00 +32°C° 0 mm 4 mps 689 mmHg 23%
    14:00 +32°C° 0 mm 4 mps 689 mmHg 24%
    15:00 +32°C° 0 mm 5 mps 688 mmHg 24%
    16:00 +30°C° 0 mm 4 mps 688 mmHg 28%
    17:00 +29°C° 0 mm 3 mps 688 mmHg 31%
    18:00 +28°C° 0 mm 3 mps 688 mmHg 35%
    19:00 +25°C° 0 mm 2 mps 688 mmHg 41%
    20:00 +21°C° 0 mm 2 mps 688 mmHg 47%
    21:00 +18°C° 0 mm 2 mps 688 mmHg 53%
    22:00 +18°C° 0 mm 2 mps 688 mmHg 55%
    23:00 +18°C° 0 mm 1 mps 688 mmHg 56%

    31 May, Wednesday

    Time Temperature Precipitation Wind Pressure Humidity
    00:00 +16°C° 0 mm 1 mps 688 mmHg 57%
    01:00 +16°C° 0 mm 1 mps 687 mmHg 57%
    02:00 +16°C° 0 mm 1 mps 687 mmHg 58%
    03:00 +15°C° 0 mm 1 mps 687 mmHg 59%
    04:00 +18°C° 0 mm 1 mps 687 mmHg 56%
    05:00 +19°C° 0 mm 1 mps 688 mmHg 54%
    06:00 +20°C° 0 mm 1 mps 688 mmHg 52%
    07:00 +23°C° 0 mm 1 mps 688 mmHg 45%
    08:00 +25°C° 0 mm 2 mps 688 mmHg 38%
    09:00 +27°C° 0 mm 2 mps 688 mmHg 31%
    10:00 +29°C° 0 mm 2 mps 688 mmHg 29%
    11:00 +30°C° 0 mm 3 mps 688 mmHg 27%
    12:00 +31°C° 0 mm 3 mps 687 mmHg 25%
    13:00 +31°C° 0.1 mm 3 mps 687 mmHg 26%
    14:00 +31°C° 0.1 mm 3 mps 686 mmHg 26%
    15:00 +33°C° 0.1 mm 3 mps 686 mmHg 26%
    16:00 +31°C° 0.3 mm 3 mps 685 mmHg 30%
    17:00 +29°C° 0.3 mm 2 mps 685 mmHg 34%
    18:00 +28°C° 0.3 mm 2 mps 685 mmHg 37%
    19:00 +26°C° 0.4 mm 2 mps 685 mmHg 44%
    20:00 +23°C° 0.4 mm 2 mps 684 mmHg 51%
    21:00 +20°C° 0.4 mm 1 mps 684 mmHg 59%
    22:00 +19°C° 0.4 mm 1 mps 684 mmHg 61%
    23:00 +19°C° 0.4 mm 1 mps 684 mmHg 64%

    1 June, Thursday

    Time Temperature Precipitation Wind Pressure Humidity
    00:00 +18°C° 0.4 mm 1 mps 684 mmHg 66%
    01:00 +18°C° 0.3 mm 1 mps 684 mmHg 67%
    02:00 +16°C° 0.3 mm 1 mps 683 mmHg 68%
    03:00 +16°C° 0.3 mm 1 mps 683 mmHg 69%
    04:00 +16°C° 0.2 mm 1 mps 683 mmHg 67%
    05:00 +18°C° 0.2 mm 1 mps 683 mmHg 64%
    06:00 +19°C° 0.2 mm 1 mps 684 mmHg 62%
    07:00 +21°C° 0 mm 1 mps 684 mmHg 52%
    08:00 +23°C° 0 mm 1 mps 684 mmHg 42%
    09:00 +25°C° 0 mm 1 mps 684 mmHg 33%
    10:00 +27°C° 0 mm 1 mps 684 mmHg 30%
    11:00 +28°C° 0 mm 1 mps 684 mmHg 27%
    12:00 +29°C° 0 mm 1 mps 684 mmHg 24%
    13:00 +29°C° 0.1 mm 2 mps 683 mmHg 23%
    14:00 +29°C° 0.1 mm 2 mps 683 mmHg 23%
    15:00 +30°C° 0.1 mm 2 mps 683 mmHg 22%
    16:00 +29°C° 0.1 mm 2 mps 683 mmHg 27%
    17:00 +27°C° 0.1 mm 2 mps 683 mmHg 31%
    18:00 +26°C° 0.1 mm 2 mps 683 mmHg 35%
    19:00 +24°C° 0.4 mm 2 mps 683 mmHg 43%
    20:00 +20°C° 0.4 mm 2 mps 683 mmHg 51%
    21:00 +18°C° 0.4 mm 2 mps 683 mmHg 60%
    22:00 +17°C° 0.1 mm 2 mps 683 mmHg 62%
    23:00 +16°C° 0.1 mm 2 mps 683 mmHg 65%

    2 June, Friday

    Time Temperature Precipitation Wind Pressure Humidity
    00:00 +16°C° 0.1 mm 1 mps 683 mmHg 67%
    01:00 +15°C° 0.1 mm 1 mps 683 mmHg 68%
    02:00 +15°C° 0.1 mm 1 mps 683 mmHg 69%
    03:00 +14°C° 0.1 mm 1 mps 683 mmHg 70%
    04:00 +15°C° 0.1 mm 1 mps 683 mmHg 67%
    05:00 +16°C° 0.1 mm 1 mps 684 mmHg 65%
    06:00 +18°C° 0.1 mm 1 mps 684 mmHg 62%
    07:00 +20°C° 0 mm 1 mps 684 mmHg 56%
    08:00 +22°C° 0 mm 1 mps 684 mmHg 51%
    09:00 +24°C° 0 mm 1 mps 685 mmHg 46%
    10:00 +25°C° 0.3 mm 1 mps 684 mmHg 43%
    11:00 +26°C° 0.3 mm 1 mps 684 mmHg 40%
    12:00 +27°C° 0.3 mm 1 mps 684 mmHg 37%
    13:00 +28°C° 0.6 mm 1 mps 684 mmHg 37%
    14:00 +28°C° 0.6 mm 1 mps 684 mmHg 36%
    15:00 +28°C° 0.6 mm 1 mps 684 mmHg 35%
    16:00 +27°C° 0.8 mm 1 mps 684 mmHg 39%
    17:00 +26°C° 0.8 mm 1 mps 684 mmHg 42%
    18:00 +25°C° 0.8 mm 1 mps 684 mmHg 46%
    19:00 +24°C° 0.7 mm 2 mps 684 mmHg 52%
    20:00 +21°C° 0.7 mm 2 mps 684 mmHg 58%
    21:00 +19°C° 0.7 mm 2 mps 684 mmHg 64%
    22:00 +18°C° 0.5 mm 2 mps 684 mmHg 68%
    23:00 +17°C° 0.5 mm 2 mps 684 mmHg 71%
    Show more